This is the latest recevied weather packets stored in our database for station/object W9KHP-1. If no packets are shown the sender has not sent any weather packets the latest 1 day(s).
| Time | Temp. | Humidity | Pressure | Rain* | Wind** | Luminosity | Snow |
|---|---|---|---|---|---|---|---|
| 1778020216 | 16.11° C | 99% | 1008.8 hPa | 3.05 mm | 0 m/s | 15 W/m² | - |
| 1778019912 | 16.11° C | 99% | 1008.9 hPa | 3.05 mm | 0 m/s | 18 W/m² | - |
| 1778019608 | 16.11° C | 99% | 1008.8 hPa | 3.05 mm | 0 m/s | 26 W/m² | - |
| 1778019305 | 16.11° C | 99% | 1009 hPa | 4.32 mm | 0 m/s | 28 W/m² | - |
| 1778019002 | 16.11° C | 99% | 1009.2 hPa | 3.05 mm | 1.79 m/s, 225° | 30 W/m² | - |
| 1778018699 | 16.11° C | 99% | 1009.2 hPa | 4.83 mm | 0 m/s | 29 W/m² | - |
| 1778018396 | 16.11° C | 99% | 1009.3 hPa | 7.87 mm | 0 m/s | 31 W/m² | - |
| 1778018095 | 16.11° C | 99% | 1009.3 hPa | 6.1 mm | 0 m/s | 20 W/m² | - |
| 1778017792 | 16.11° C | 99% | 1009.2 hPa | 4.32 mm | 0 m/s | 15 W/m² | - |
| 1778017490 | 16.11° C | 99% | 1009.1 hPa | 6.1 mm | 0 m/s | 27 W/m² | - |
| 1778017187 | 16.11° C | 99% | 1009.2 hPa | 4.83 mm | 0 m/s | 23 W/m² | - |
| 1778016885 | 16.11° C | 99% | 1009.3 hPa | 3.05 mm | 0 m/s | 27 W/m² | - |
| 1778016581 | 16.11° C | 99% | 1009.1 hPa | 6.1 mm | 0 m/s | 33 W/m² | - |
| 1778016278 | 16.11° C | 99% | 1009.3 hPa | 7.87 mm | 0 m/s | 45 W/m² | - |
| 1778015974 | 15.56° C | 99% | 1009.1 hPa | 8.89 mm | 0 m/s | 51 W/m² | - |
| 1778015672 | 15.56° C | 99% | 1009.3 hPa | 19.81 mm | 0.45 m/s, 170° | 47 W/m² | - |
| 1778015368 | 15.56° C | 99% | 1009.4 hPa | 18.03 mm | 0 m/s | 37 W/m² | - |
| 1778015065 | 15.56° C | 99% | 1009.4 hPa | 4.32 mm | 0 m/s | 49 W/m² | - |
| 1778014762 | 15.56° C | 99% | 1009.2 hPa | 1.78 mm | 0 m/s | 21 W/m² | - |
| 1778014460 | 15.56° C | 99% | 1009.2 hPa | 7.87 mm | 0 m/s | 14 W/m² | - |
| 1778014157 | 15.56° C | 99% | 1009.2 hPa | 14.99 mm | 0 m/s | 17 W/m² | - |
| 1778013855 | 15.56° C | 99% | 1009.6 hPa | 14.99 mm | 0 m/s | 13 W/m² | - |
| 1778013552 | 15.56° C | 99% | 1009.4 hPa | 6.1 mm | 0 m/s | 11 W/m² | - |
| 1778013248 | 16.11° C | 99% | 1009.5 hPa | 4.83 mm | 0.89 m/s, 221° | 7 W/m² | - |
| 1778012944 | 16.11° C | 99% | 1009.5 hPa | 11.94 mm | 0 m/s | 23 W/m² | - |
* Rain latest hour (hover to see other rain measurements)
** Current wind speed in m/s (hover to see current wind gust speed)